Location: Pinawa
(50.1500°N, 95.8830°W)
Time: 06:17:50
(UTC-05:00)

Amateur Radio Satellites - All Passes

Search period start: 01 September 2014 05:47
Search period end: 02 September 2014 05:47
Location: Pinawa, 50.1500°N, 95.8830°W

Satellite Date Start Highest point End Downlink Frequencies (MHz)
Time Altitude Azimuth
JAS-1B 01 Sep 05:52:53 05:58:22 25° 310° (NW) 06:03:15 435.800 - 435.900 CW/SSB
Saudisat 1A 01 Sep 05:54:39 05:58:33 29° 34° (NNE) 06:02:26 436.775 MHz
KITSAT 1 01 Sep 05:58:11 06:05:08 30° 18° (NNE) 06:12:03 435.175 FM
ITAMSAT 1 01 Sep 06:05:23 06:07:16 12° 311° (NW) 06:09:10 435.822 SSB
TMSAT-1 01 Sep 06:20:40 06:24:31 21° 303° (WNW) 06:28:21 436.925 FM
JAS-2 01 Sep 06:22:38 06:26:27 20° 91° (E) 06:30:25 435.800 - 435.900 CW/SSB, 435.910 FM
Uosat F 01 Sep 06:35:13 06:40:06 53° 292° (WNW) 06:44:57 435.120 FM
Hamsat 01 Sep 06:42:49 06:46:36 28° 94° (E) 06:50:19 145.90 MHz
SO-50 01 Sep 06:59:51 07:03:15 20° 337° (NNW) 07:06:43 436.795 FM
RS-15 01 Sep 07:03:40 07:12:16 28° 103° (ESE) 07:20:47 29.354 - 29.394 USB, Beacon 29.352 USB
UOSAT-12 01 Sep 07:08:36 07:13:13 62° 315° (NW) 07:17:56 437.025 FM, 437.400 FM
STRAND 1 01 Sep 07:19:37 07:24:43 78° 256° (WSW) 07:29:50 ?
AO-7 01 Sep 07:24:07 07:31:58 49° 302° (WNW) 07:39:47 29.400 - 29.500 MHz
Saudisat 1A 01 Sep 07:34:05 07:38:27 60° 234° (SW) 07:42:47 436.775 MHz
KITSAT 1 01 Sep 07:54:07 08:02:11 64° 45° (NE) 08:10:11 435.175 FM
JAS-2 01 Sep 08:06:54 08:12:05 67° 289° (WNW) 08:17:34 435.800 - 435.900 CW/SSB, 435.910 FM
SO-67 01 Sep 08:07:07 08:10:14 30° 96° (E) 08:13:20 435.3500 MHz FM
Uosat F 01 Sep 08:16:56 08:17:50 10° 312° (NW) 08:18:43 435.120 FM
Hamsat 01 Sep 08:18:37 08:22:38 36° 293° (WNW) 08:26:36 145.90 MHz
SO-50 01 Sep 08:43:05 08:45:33 14° 2° (N) 08:48:03 436.795 FM
UOSAT-12 01 Sep 08:50:46 08:54:17 20° 337° (NNW) 08:57:49 437.025 FM, 437.400 FM
STRAND 1 01 Sep 09:02:51 09:04:47 12° 275° (W) 09:06:42 ?
RS-15 01 Sep 09:12:04 09:23:07 86° 128° (SE) 09:34:06 29.354 - 29.394 USB, Beacon 29.352 USB
AO-7 01 Sep 09:18:08 09:22:53 17° 326° (NNW) 09:27:38 29.400 - 29.500 MHz
HO-68 01 Sep 09:18:47 09:24:14 23° 89° (E) 09:29:40 435.675 MHz FM
SO-67 01 Sep 09:40:26 09:43:10 22° 294° (WNW) 09:45:53 435.3500 MHz FM
KITSAT 1 01 Sep 09:49:55 09:57:19 41° 248° (WSW) 10:04:40 435.175 FM
JAS-2 01 Sep 09:54:12 09:56:20 13° 309° (NW) 09:58:31 435.800 - 435.900 CW/SSB, 435.910 FM
UKube-1 01 Sep 10:12:34 10:16:10 25° 94° (E) 10:19:44 145.840 MHz, 145.915 MHz
Oscar 11 01 Sep 10:17:08 10:20:22 20° 91° (E) 10:23:35 145.825 FM, Beacon 2401.500 USB
SO-50 01 Sep 10:24:00 10:27:46 23° 27° (NNE) 10:31:35 436.795 FM
UOSAT-12 01 Sep 10:33:37 10:36:10 14° 2° (N) 10:38:44 437.025 FM, 437.400 FM
FUNcube-1 01 Sep 10:47:25 10:50:34 18° 90° (E) 10:53:45 145.950 - 145.970 MHz USB
HO-68 01 Sep 11:05:36 11:12:48 84° 290° (WNW) 11:19:59 435.675 MHz FM
ISS 01 Sep 11:11:29 11:14:25 29° 147° (SSE) 11:17:23 145.800 FM
JAS-1B 01 Sep 11:18:43 11:19:31 10° 32° (NNE) 11:20:18 435.800 - 435.900 CW/SSB
RS-15 01 Sep 11:26:19 11:36:43 46° 337° (NNW) 11:47:12 29.354 - 29.394 USB, Beacon 29.352 USB
UKube-1 01 Sep 11:48:26 11:52:32 41° 293° (WNW) 11:56:37 145.840 MHz, 145.915 MHz
Oscar 11 01 Sep 11:52:36 11:56:52 52° 290° (WNW) 12:01:06 145.825 FM, Beacon 2401.500 USB
Oscar 19 01 Sep 11:55:52 11:57:23 11° 49° (NE) 11:58:54 437.125 CW, 437.150 USB
SO-50 01 Sep 12:04:16 12:09:03 79° 48° (NE) 12:13:54 436.795 FM
UOSAT-12 01 Sep 12:14:11 12:17:59 23° 26° (NNE) 12:21:45 437.025 FM, 437.400 FM
MaSat-1 01 Sep 12:18:45 12:20:17 11° 98° (E) 12:21:50 437.345 MHz
FUNcube-1 01 Sep 12:22:53 12:27:21 62° 288° (WNW) 12:31:53 145.950 - 145.970 MHz USB
Oscar 16 01 Sep 12:28:24 12:32:05 20° 56° (ENE) 12:35:47 437.025 USB, Beacon 2401.1428
ITAMSAT 1 01 Sep 12:32:22 12:33:45 11° 48° (NE) 12:35:08 435.822 SSB
Uribyol 2 01 Sep 12:40:39 12:43:04 14° 51° (NE) 12:45:30 436.500 FM
ISS 01 Sep 12:47:37 12:50:57 85° 346° (NNW) 12:54:18 145.800 FM
HO-68 01 Sep 12:54:16 12:59:37 24° 311° (NW) 13:04:59 435.675 MHz FM
AO-7 01 Sep 12:58:59 13:01:13 11° 22° (NNE) 13:03:26 29.400 - 29.500 MHz
AO-27 01 Sep 12:59:28 13:02:51 18° 55° (NE) 13:06:14 436.795 MHz FM
JAS-1B 01 Sep 12:59:52 13:07:42 32° 55° (NE) 13:14:40 435.800 - 435.900 CW/SSB
Oscar 19 01 Sep 13:30:37 13:35:39 55° 69° (ENE) 13:40:44 437.125 CW, 437.150 USB
Gurwin Techsat 1B 01 Sep 13:37:32 13:41:03 18° 55° (NE) 13:44:35 435.225 FM
RS-15 01 Sep 13:42:09 13:52:14 39° 10° (N) 14:02:31 29.354 - 29.394 USB, Beacon 29.352 USB
AO-Echo 01 Sep 13:44:17 13:48:48 37° 66° (ENE) 13:53:14 ?
SO-50 01 Sep 13:45:46 13:49:08 19° 247° (WSW) 13:52:31 436.795 FM
MaSat-1 01 Sep 13:51:21 13:56:19 67° 117° (ESE) 14:01:28 437.345 MHz
UOSAT-12 01 Sep 13:54:05 13:58:52 79° 48° (NE) 14:03:34 437.025 FM, 437.400 FM
FUNcube-1 01 Sep 14:02:08 14:02:54 10° 307° (NW) 14:03:39 145.950 - 145.970 MHz USB
Oscar 16 01 Sep 14:05:42 14:10:53 77° 256° (WSW) 14:16:07 437.025 USB, Beacon 2401.1428
ITAMSAT 1 01 Sep 14:07:09 14:12:11 54° 68° (ENE) 14:17:14 435.822 SSB
Uribyol 2 01 Sep 14:16:32 14:21:39 68° 71° (ENE) 14:26:48 436.500 FM
ISS 01 Sep 14:24:30 14:27:50 68° 6° (N) 14:31:10 145.800 FM
TMSAT-1 01 Sep 14:26:27 14:31:03 31° 62° (ENE) 14:35:40 436.925 FM
AO-27 01 Sep 14:36:32 14:41:43 88° 254° (WSW) 14:46:57 436.795 MHz FM
Uosat F 01 Sep 14:40:32 14:41:37 11° 49° (NE) 14:42:41 435.120 FM
AO-7 01 Sep 14:44:30 14:51:21 30° 47° (NE) 14:58:11 29.400 - 29.500 MHz
JAS-1B 01 Sep 14:47:53 14:57:35 84° 254° (WSW) 15:06:02 435.800 - 435.900 CW/SSB
Oscar 19 01 Sep 15:11:08 15:15:20 25° 268° (W) 15:19:34 437.125 CW, 437.150 USB
Gurwin Techsat 1B 01 Sep 15:15:03 15:20:22 88° 254° (WSW) 15:25:43 435.225 FM
AO-Echo 01 Sep 15:23:07 15:27:37 34° 264° (W) 15:32:02 ?
MaSat-1 01 Sep 15:29:23 15:33:47 28° 318° (NW) 15:38:13 437.345 MHz
UOSAT-12 01 Sep 15:35:14 15:38:28 19° 248° (WSW) 15:41:41 437.025 FM, 437.400 FM
ITAMSAT 1 01 Sep 15:47:47 15:52:00 25° 267° (W) 15:56:14 435.822 SSB
Oscar 16 01 Sep 15:49:06 15:51:08 12° 275° (W) 15:53:10 437.025 USB, Beacon 2401.1428
RS-15 01 Sep 15:55:51 16:06:51 68° 42° (NE) 16:18:12 29.354 - 29.394 USB, Beacon 29.352 USB
Uribyol 2 01 Sep 15:57:54 16:01:38 20° 270° (W) 16:05:23 436.500 FM
ISS 01 Sep 16:01:18 16:04:33 53° 205° (SSW) 16:07:49 145.800 FM
TMSAT-1 01 Sep 16:05:45 16:10:49 47° 261° (W) 16:15:56 436.925 FM
Uosat F 01 Sep 16:14:29 16:19:21 54° 69° (ENE) 16:24:15 435.120 FM
AO-27 01 Sep 16:19:19 16:22:01 14° 273° (W) 16:24:44 436.795 MHz FM
Sapphire 01 Sep 16:22:08 16:25:38 18° 106° (ESE) 16:29:09 437.095 MHz 1200 baud AX-25 AFSK
AO-7 01 Sep 16:34:56 16:43:18 88° 250° (WSW) 16:51:41 29.400 - 29.500 MHz
JAS-2 01 Sep 16:41:26 16:44:59 17° 55° (NE) 16:48:22 435.800 - 435.900 CW/SSB, 435.910 FM
JAS-1B 01 Sep 16:41:44 16:49:00 24° 273° (W) 16:55:43 435.800 - 435.900 CW/SSB
PCSat 01 Sep 16:49:53 16:54:34 31° 112° (ESE) 16:59:17 145.825 MHz
Gurwin Techsat 1B 01 Sep 16:58:13 17:01:07 15° 274° (W) 17:04:02 435.225 FM
MaSat-1 01 Sep 17:11:17 17:12:29 11° 340° (NNW) 17:13:41 437.345 MHz
OPAL 01 Sep 17:38:35 17:43:29 39° 100° (E) 17:48:21 ?
ISS 01 Sep 17:39:16 17:40:43 12° 223° (SW) 17:42:09 145.800 FM
Hamsat 01 Sep 17:40:27 17:44:25 36° 67° (ENE) 17:48:26 145.90 MHz
Uosat F 01 Sep 17:54:28 17:58:28 24° 267° (W) 18:02:30 435.120 FM
Sapphire 01 Sep 18:02:56 18:08:21 88° 305° (NW) 18:13:49 437.095 MHz 1200 baud AX-25 AFSK
RS-15 01 Sep 18:08:35 18:18:53 47° 247° (WSW) 18:29:33 29.354 - 29.394 USB, Beacon 29.352 USB
JAS-2 01 Sep 18:23:35 18:29:31 88° 74° (ENE) 18:34:54 435.800 - 435.900 CW/SSB, 435.910 FM
AO-7 01 Sep 18:30:59 18:37:14 23° 271° (W) 18:43:31 29.400 - 29.500 MHz
PCSat 01 Sep 18:32:25 18:37:45 55° 312° (NW) 18:43:06 145.825 MHz
SO-67 01 Sep 18:44:52 18:47:39 23° 66° (ENE) 18:50:26 435.3500 MHz FM
Hamsat 01 Sep 19:16:41 19:20:27 28° 266° (W) 19:24:15 145.90 MHz
OPAL 01 Sep 19:17:34 19:22:21 37° 299° (WNW) 19:27:05 ?
STRAND 1 01 Sep 19:25:58 19:30:10 25° 93° (E) 19:34:22 ?
Sapphire 01 Sep 19:48:05 19:52:32 25° 328° (NNW) 19:57:00 437.095 MHz 1200 baud AX-25 AFSK
HO-68 01 Sep 19:52:32 19:58:34 31° 54° (NE) 20:04:36 435.675 MHz FM
JAS-2 01 Sep 20:11:53 20:15:18 16° 272° (W) 20:18:33 435.800 - 435.900 CW/SSB, 435.910 FM
SO-67 01 Sep 20:17:31 20:20:35 29° 264° (W) 20:23:41 435.3500 MHz FM
PCSat 01 Sep 20:18:32 20:22:22 19° 336° (NNW) 20:26:12 145.825 MHz
MaSat-1 01 Sep 20:28:24 20:31:10 15° 29° (NNE) 20:33:47 437.345 MHz
STRAND 1 01 Sep 21:04:42 21:09:40 53° 292° (WNW) 21:14:37 ?
UKube-1 01 Sep 21:12:21 21:16:23 39° 67° (ENE) 21:20:26 145.840 MHz, 145.915 MHz
Oscar 11 01 Sep 21:16:31 21:20:14 28° 64° (ENE) 21:23:59 145.825 FM, Beacon 2401.500 USB
Sapphire 01 Sep 21:35:18 21:37:57 14° 354° (N) 21:40:36 437.095 MHz 1200 baud AX-25 AFSK
HO-68 01 Sep 21:38:38 21:45:45 73° 255° (WSW) 21:52:56 435.675 MHz FM
Saudisat 1A 01 Sep 21:48:00 21:49:13 11° 109° (ESE) 21:50:27 436.775 MHz
FUNcube-1 01 Sep 21:48:31 21:51:58 25° 63° (ENE) 21:55:28 145.950 - 145.970 MHz USB
MaSat-1 01 Sep 22:04:39 22:09:21 54° 52° (NE) 22:13:28 437.345 MHz
PCSat 01 Sep 22:05:28 22:08:01 13° 2° (N) 22:10:34 145.825 MHz
KITSAT 1 01 Sep 22:30:29 22:35:48 19° 102° (ESE) 22:41:06 435.175 FM
STRAND 1 01 Sep 22:46:48 22:47:47 11° 312° (NW) 22:48:45 ?
UKube-1 01 Sep 22:49:03 22:52:43 26° 265° (W) 22:56:23 145.840 MHz, 145.915 MHz
Oscar 11 01 Sep 22:52:17 22:56:19 37° 263° (W) 23:00:24 145.825 FM, Beacon 2401.500 USB
Sapphire 01 Sep 23:20:09 23:23:41 17° 20° (NNE) 23:27:12 437.095 MHz 1200 baud AX-25 AFSK
Saudisat 1A 01 Sep 23:23:37 23:28:00 72° 127° (SE) 23:32:26 436.775 MHz
AO-40 01 Sep 23:23:50 03:56:09 29° 155° (SSE) 05:35:20 Beacon 2401.320
FUNcube-1 01 Sep 23:24:10 23:28:10 41° 262° (W) 23:32:17 145.950 - 145.970 MHz USB
HO-68 01 Sep 23:30:44 23:34:45 16° 276° (W) 23:38:47 435.675 MHz FM
MaSat-1 01 Sep 23:42:23 23:45:55 22° 255° (WSW) 23:49:07 437.345 MHz
PCSat 01 Sep 23:49:22 23:53:33 22° 28° (NNE) 23:57:43 145.825 MHz
KITSAT 1 02 Sep 00:21:50 00:29:54 76° 123° (ESE) 00:38:00 435.175 FM
Sapphire 02 Sep 01:03:17 01:08:30 45° 44° (NE) 01:13:42 437.095 MHz 1200 baud AX-25 AFSK
Saudisat 1A 02 Sep 01:04:17 01:08:02 26° 329° (NNW) 01:11:47 436.775 MHz
PCSat 02 Sep 01:32:29 01:37:56 71° 51° (NE) 01:43:21 145.825 MHz
Oscar 19 02 Sep 01:39:06 01:41:41 14° 86° (E) 01:44:16 437.125 CW, 437.150 USB
Oscar 16 02 Sep 02:13:07 02:17:32 27° 93° (E) 02:21:55 437.025 USB, Beacon 2401.1428
ITAMSAT 1 02 Sep 02:16:58 02:19:25 13° 86° (E) 02:21:51 435.822 SSB
KITSAT 1 02 Sep 02:18:25 02:25:59 41° 327° (NNW) 02:33:35 435.175 FM
Uribyol 2 02 Sep 02:25:37 02:28:58 17° 88° (E) 02:32:17 436.500 FM
JAS-1B 02 Sep 02:31:04 02:35:49 20° 84° (E) 02:40:08 435.800 - 435.900 CW/SSB
AO-27 02 Sep 02:45:25 02:49:34 24° 92° (E) 02:53:42 436.795 MHz FM
Sapphire 02 Sep 02:46:53 02:51:55 40° 245° (WSW) 02:56:56 437.095 MHz 1200 baud AX-25 AFSK
Saudisat 1A 02 Sep 02:46:56 02:49:04 13° 352° (N) 02:51:13 436.775 MHz
Oscar 19 02 Sep 03:16:35 03:21:50 85° 105° (ESE) 03:27:02 437.125 CW, 437.150 USB
PCSat 02 Sep 03:16:40 03:20:52 23° 251° (WSW) 03:25:03 145.825 MHz
OPAL 02 Sep 03:21:00 03:24:49 22° 54° (NE) 03:28:41 ?
AO-Echo 02 Sep 03:24:54 03:29:31 53° 100° (E) 03:34:08 ?
Gurwin Techsat 1B 02 Sep 03:26:59 03:31:27 27° 93° (E) 03:35:52 435.225 FM
Oscar 16 02 Sep 03:52:07 03:57:09 50° 292° (WNW) 04:02:09 437.025 USB, Beacon 2401.1428
ITAMSAT 1 02 Sep 03:54:30 03:59:44 83° 105° (ESE) 04:04:56 435.822 SSB
SO-50 02 Sep 04:03:47 04:08:06 48° 123° (ESE) 04:12:33 436.795 FM
Uribyol 2 02 Sep 04:03:51 04:09:05 80° 287° (WNW) 04:14:17 436.500 FM
TMSAT-1 02 Sep 04:16:31 04:21:41 50° 99° (E) 04:26:49 436.925 FM
KITSAT 1 02 Sep 04:17:12 04:23:46 26° 356° (N) 04:30:19 435.175 FM
Uosat F 02 Sep 04:19:51 04:21:21 11° 85° (E) 04:22:51 435.120 FM
JAS-1B 02 Sep 04:20:37 04:27:37 79° 289° (WNW) 04:33:34 435.800 - 435.900 CW/SSB
AO-27 02 Sep 04:24:22 04:29:28 58° 291° (WNW) 04:34:32 436.795 MHz FM
Saudisat 1A 02 Sep 04:27:42 04:30:25 16° 17° (NNE) 04:33:08 436.775 MHz
AO-7 02 Sep 04:32:05 04:38:27 24° 89° (E) 04:44:44 29.400 - 29.500 MHz
Oscar 19 02 Sep 04:57:03 05:00:33 19° 305° (NW) 05:04:03 437.125 CW, 437.150 USB
OPAL 02 Sep 04:58:07 05:03:12 73° 254° (WSW) 05:08:24 ?
AO-Echo 02 Sep 05:04:19 05:08:02 24° 299° (WNW) 05:11:44 ?
Gurwin Techsat 1B 02 Sep 05:06:33 05:11:43 53° 292° (WNW) 05:16:51 435.225 FM
STRAND 1 02 Sep 05:11:27 05:13:04 12° 49° (NE) 05:14:41 ?
Oscar 16 02 Sep 05:34:34 05:35:22 10° 313° (NW) 05:36:09 437.025 USB, Beacon 2401.1428
ITAMSAT 1 02 Sep 05:35:06 05:38:38 19° 305° (NW) 05:42:10 435.822 SSB
